datetime,flow
2009-04-16,1780.0
2009-04-17,1390.0
2009-04-18,1350.0
2009-04-19,1590.0
2009-04-20,2010.0
2009-04-21,2850.0
2009-04-22,3280.0
2009-04-23,3370.0
2009-04-24,3500.0
2009-04-25,3280.0
2009-04-26,2970.0
2009-04-27,2360.0
2009-04-28,2060.0
2009-04-29,1790.0
2009-04-30,2550.0
2009-05-01,2890.0
2009-05-02,3230.0
2009-05-03,3370.0
2009-05-04,2830.0
2009-05-05,2380.0
2009-05-06,2510.0
2009-05-07,3260.0
2009-05-08,4050.0
2009-05-09,3950.0
2009-05-10,3650.0
2009-05-11,3770.0
2009-05-12,3590.0
2009-05-13,3400.0
2009-05-14,2950.0
2009-05-15,2720.0
2009-05-16,2690.0
2009-05-17,2660.0
2009-05-18,2760.0
2009-05-19,2900.0
2009-05-20,2590.0
2009-05-21,2470.0
2009-05-22,2390.0
2009-05-23,2160.0
2009-05-24,3600.0
2009-05-25,4170.0
2009-05-26,3440.0
2009-05-27,2820.0
2009-05-28,2410.0
2009-05-29,2320.0
2009-05-30,2160.0
2009-05-31,2190.0
2009-06-01,2080.0
2009-06-02,1950.0
2009-06-03,2270.0
2009-06-04,2160.0
2009-06-05,2100.0
2009-06-06,1850.0
2009-06-07,1540.0
2009-06-08,1310.0
2009-06-09,1210.0
2009-06-10,1170.0
2009-06-11,1180.0
2009-06-12,1170.0
2009-06-13,1100.0
2009-06-14,1160.0
2009-06-15,1140.0
2009-06-16,1140.0
2009-06-17,1100.0
2009-06-18,1120.0
2009-06-19,1120.0
2009-06-20,1180.0
2009-06-21,1200.0
2009-06-22,1260.0
2009-06-23,1180.0
2009-06-24,1060.0
2009-06-25,1250.0
2009-06-26,1390.0
2009-06-27,1420.0
2009-06-28,1170.0
2009-06-29,1040.0
2009-06-30,926.0
2009-07-01,834.0
2009-07-02,777.0
2009-07-03,795.0
2009-07-04,802.0
2009-07-05,744.0
2009-07-06,682.0
2009-07-07,505.0
2009-07-08,400.0
2009-07-09,342.0
2009-07-10,297.0
2009-07-11,251.0
2009-07-12,245.0
2009-07-13,226.0
2009-07-14,204.0
2009-07-15,157.0
2009-07-16,136.0
2009-07-17,113.0
2009-07-18,106.0
2009-07-19,105.0
2009-07-20,104.0
2009-07-21,103.0
2009-07-22,98.0
2009-07-23,99.2
2009-07-24,95.3
2009-07-25,102.0
2009-07-26,117.0
2009-07-27,156.0
2009-07-28,144.0
2009-07-29,125.0
2009-07-30,114.0
2009-07-31,126.0
2009-08-01,123.0
2009-08-02,112.0
2009-08-03,110.0
2009-08-04,107.0
2009-08-05,106.0
2009-08-06,106.0
2009-08-07,126.0
2009-08-08,117.0
2009-08-09,113.0
2009-08-10,107.0
2009-08-11,98.3
2009-08-12,98.5
2009-08-13,99.5
2009-08-14,113.0
2009-08-15,131.0
2009-08-16,122.0
2009-08-17,114.0
2009-08-18,104.0
2009-08-19,98.1
2009-08-20,102.0
2009-08-21,99.5
2009-08-22,95.1
2009-08-23,98.9
2009-08-24,113.0
2009-08-25,125.0
2009-08-26,116.0
2009-08-27,111.0
2009-08-28,103.0
2009-08-29,104.0
2009-08-30,105.0
2009-08-31,105.0
2009-09-01,97.5
2009-09-02,97.8
2009-09-03,100.0
2009-09-04,101.0
2009-09-05,99.2
2009-09-06,101.0
2009-09-07,109.0
2009-09-08,101.0
2009-09-09,95.7
2009-09-10,97.0
2009-09-11,99.3
2009-09-12,104.0
2009-09-13,108.0
2009-09-14,118.0
2009-09-15,119.0
2009-09-16,121.0
2009-09-17,132.0
2009-09-18,130.0
2009-09-19,138.0
2009-09-20,140.0
2009-09-21,150.0
2009-09-22,143.0
2009-09-23,133.0
2009-09-24,137.0
2009-09-25,136.0
2009-09-26,129.0
2009-09-27,125.0
2009-09-28,118.0
2009-09-29,109.0
2009-09-30,102.0
2009-10-01,104.0
2009-10-02,115.0
2009-10-03,122.0
2009-10-04,128.0
2009-10-05,126.0
2009-10-06,131.0
2009-10-07,136.0
2009-10-08,136.0
2009-10-09,140.0
2009-10-10,145.0
2009-10-11,143.0
2009-10-12,145.0
2009-10-13,161.0
2009-10-14,175.0
2009-10-15,204.0
2009-10-16,200.0
2009-10-17,185.0
2009-10-18,181.0
2009-10-19,173.0
2009-10-20,169.0
2009-10-21,172.0
2009-10-22,174.0
2009-10-23,173.0
2009-10-24,173.0
2009-10-25,181.0
2009-10-26,175.0
2009-10-27,174.0
2009-10-28,197.0
2009-10-29,205.0
2009-10-30,209.0
2009-10-31,187.0
2009-11-01,193.0
2009-11-02,193.0
2009-11-03,188.0
2009-11-04,180.0
2009-11-05,176.0
2009-11-06,178.0
2009-11-07,177.0
2009-11-08,175.0
2009-11-09,174.0
2009-11-10,180.0
2009-11-11,179.0
2009-11-12,181.0
2009-11-13,179.0
2009-11-14,214.0
2009-11-15,214.0
2009-11-16,180.0
2009-11-17,155.0
2009-11-18,168.0
2009-11-19,180.0
2009-11-20,176.0
2009-11-21,169.0
2009-11-22,182.0
2009-11-23,174.0
2009-11-24,152.0
2009-11-25,124.0
2009-11-26,152.0
2009-11-27,159.0
2009-11-28,160.0
2009-11-29,172.0
2009-11-30,157.0
2009-12-01,143.0
2009-12-02,126.0
2009-12-03,119.0
2009-12-04,115.0
2009-12-05,114.0
2009-12-06,112.0
2009-12-07,119.0
2009-12-08,127.0
2009-12-09,127.0
2009-12-10,128.0
2009-12-11,129.0
2009-12-12,133.0
2009-12-13,134.0
2009-12-14,134.0
2009-12-15,134.0
2009-12-16,138.0
2009-12-17,130.0
2009-12-18,132.0
2009-12-19,126.0
2009-12-20,126.0
2009-12-21,125.0
2009-12-22,128.0
2009-12-23,134.0
2009-12-24,132.0
2009-12-25,133.0
2009-12-26,128.0
2009-12-27,125.0
2009-12-28,128.0
2009-12-29,126.0
2009-12-30,118.0
2009-12-31,119.0
2010-01-01,118.0
2010-01-02,117.0
2010-01-03,116.0
2010-01-04,114.0
2010-01-05,117.0
2010-01-06,122.0
2010-01-07,116.0
2010-01-08,111.0
2010-01-09,113.0
2010-01-10,123.0
2010-01-11,125.0
2010-01-12,124.0
2010-01-13,122.0
2010-01-14,119.0
2010-01-15,114.0
2010-01-16,112.0
2010-01-17,117.0
2010-01-18,115.0
2010-01-19,126.0
2010-01-20,128.0
2010-01-21,128.0
2010-01-22,139.0
2010-01-23,138.0
2010-01-24,129.0
2010-01-25,123.0
2010-01-26,119.0
2010-01-27,127.0
2010-01-28,135.0
2010-01-29,136.0
2010-01-30,135.0
2010-01-31,128.0
2010-02-01,129.0
2010-02-02,114.0
2010-02-03,114.0
2010-02-04,127.0
2010-02-05,123.0
2010-02-06,131.0
2010-02-07,128.0
2010-02-08,129.0
2010-02-09,127.0
2010-02-10,132.0
2010-02-11,137.0
2010-02-12,134.0
2010-02-13,134.0
2010-02-14,129.0
2010-02-15,117.0
2010-02-16,136.0
2010-02-17,127.0
2010-02-18,138.0
2010-02-19,140.0
2010-02-20,147.0
2010-02-21,148.0
2010-02-22,138.0
2010-02-23,116.0
2010-02-24,118.0
2010-02-25,145.0
2010-02-26,140.0
2010-02-27,127.0
2010-02-28,138.0
2010-03-01,145.0
2010-03-02,153.0
2010-03-03,159.0
2010-03-04,176.0
2010-03-05,192.0
2010-03-06,169.0
2010-03-07,165.0
2010-03-08,202.0
2010-03-09,194.0
2010-03-10,181.0
2010-03-11,168.0
2010-03-12,155.0
2010-03-13,153.0
2010-03-14,163.0
2010-03-15,161.0
2010-03-16,163.0
2010-03-17,168.0
2010-03-18,182.0
2010-03-19,217.0
2010-03-20,214.0
2010-03-21,182.0
2010-03-22,179.0
2010-03-23,185.0
2010-03-24,183.0
2010-03-25,164.0
2010-03-26,161.0
2010-03-27,159.0
2010-03-28,148.0
2010-03-29,150.0
2010-03-30,163.0
2010-03-31,204.0
2010-04-01,246.0
2010-04-02,229.0
2010-04-03,198.0
2010-04-04,228.0
2010-04-05,237.0
2010-04-06,145.0
2010-04-07,130.0
2010-04-08,143.0
2010-04-09,438.0
2010-04-10,586.0
2010-04-11,762.0
2010-04-12,1040.0
2010-04-13,1400.0
2010-04-14,1110.0
2010-04-15,1470.0
2010-04-16,1770.0
2010-04-17,2280.0
2010-04-18,2330.0
2010-04-19,2400.0
2010-04-20,2730.0
2010-04-21,3110.0
2010-04-22,3490.0
2010-04-23,2470.0
2010-04-24,1700.0
2010-04-25,1320.0
2010-04-26,1080.0
2010-04-27,1190.0
2010-04-28,1460.0
2010-04-29,1720.0
2010-04-30,1500.0
2010-05-01,1110.0
2010-05-02,925.0
2010-05-03,863.0
2010-05-04,933.0
2010-05-05,1100.0
2010-05-06,1180.0
2010-05-07,1110.0
2010-05-08,1110.0
2010-05-09,1130.0
2010-05-10,1470.0
2010-05-11,1260.0
2010-05-12,1100.0
2010-05-13,1020.0
2010-05-14,929.0
2010-05-15,970.0
2010-05-16,880.0
2010-05-17,905.0
2010-05-18,1230.0
2010-05-19,1230.0
2010-05-20,1170.0
2010-05-21,1380.0
2010-05-22,1830.0
2010-05-23,1680.0
2010-05-24,2060.0
2010-05-25,1440.0
2010-05-26,1340.0
2010-05-27,1700.0
2010-05-28,2230.0
2010-05-29,2690.0
2010-05-30,2560.0
2010-05-31,2510.0
2010-06-01,2540.0
2010-06-02,2390.0
2010-06-03,1640.0
2010-06-04,1850.0
2010-06-05,2490.0
2010-06-06,2860.0
2010-06-07,3000.0
2010-06-08,2770.0
2010-06-09,2710.0
2010-06-10,2460.0
2010-06-11,1980.0
2010-06-12,1640.0
2010-06-13,1560.0
2010-06-14,1340.0
2010-06-15,1060.0
2010-06-16,953.0
2010-06-17,935.0
2010-06-18,914.0
2010-06-19,902.0
2010-06-20,855.0
2010-06-21,791.0
2010-06-22,651.0
2010-06-23,602.0
2010-06-24,549.0
2010-06-25,522.0
2010-06-26,491.0
2010-06-27,483.0
2010-06-28,426.0
2010-06-29,376.0
2010-06-30,321.0
2010-07-01,288.0
2010-07-02,256.0
2010-07-03,238.0
2010-07-04,215.0
2010-07-05,181.0
2010-07-06,133.0
2010-07-07,98.3
2010-07-08,79.3
2010-07-09,88.3
2010-07-10,91.0
2010-07-11,78.1
2010-07-12,79.3
2010-07-13,82.8
2010-07-14,72.6
2010-07-15,69.0
2010-07-16,82.1
2010-07-17,81.2
2010-07-18,75.1
2010-07-19,71.7
2010-07-20,72.4
2010-07-21,136.0
2010-07-22,206.0
2010-07-23,138.0
2010-07-24,118.0
2010-07-25,100.0
2010-07-26,99.6
2010-07-27,123.0
2010-07-28,265.0
2010-07-29,162.0
2010-07-30,132.0
2010-07-31,149.0
2010-08-01,245.0
2010-08-02,236.0
2010-08-03,232.0
2010-08-04,176.0
2010-08-05,247.0
2010-08-06,202.0
2010-08-07,185.0
2010-08-08,202.0
2010-08-09,189.0
2010-08-10,167.0
2010-08-11,162.0
2010-08-12,188.0
2010-08-13,191.0
2010-08-14,155.0
2010-08-15,150.0
2010-08-16,154.0
2010-08-17,204.0
2010-08-18,197.0
2010-08-19,225.0
2010-08-20,370.0
2010-08-21,231.0
2010-08-22,200.0
2010-08-23,210.0
2010-08-24,181.0
2010-08-25,160.0
2010-08-26,152.0
2010-08-27,144.0
2010-08-28,146.0
2010-08-29,156.0
2010-08-30,158.0
2010-08-31,151.0
2010-09-01,141.0
2010-09-02,141.0
2010-09-03,150.0
2010-09-04,144.0
2010-09-05,141.0
2010-09-06,137.0
2010-09-07,136.0
2010-09-08,169.0
2010-09-09,185.0
2010-09-10,171.0
2010-09-11,161.0
2010-09-12,161.0
2010-09-13,163.0
2010-09-14,154.0
2010-09-15,150.0
2010-09-16,145.0
2010-09-17,141.0
2010-09-18,136.0
2010-09-19,132.0
2010-09-20,137.0
2010-09-21,145.0
2010-09-22,157.0
2010-09-23,216.0
2010-09-24,212.0
2010-09-25,194.0
2010-09-26,167.0
2010-09-27,159.0
2010-09-28,151.0
2010-09-29,146.0
2010-09-30,144.0
2010-10-01,139.0
2010-10-02,131.0
2010-10-03,132.0
2010-10-04,132.0
2010-10-05,143.0
2010-10-06,141.0
2010-10-07,134.0
2010-10-08,144.0
2010-10-09,152.0
2010-10-10,151.0
2010-10-11,147.0
2010-10-12,144.0
2010-10-13,147.0
2010-10-14,145.0
2010-10-15,151.0
2010-10-16,159.0
2010-10-17,162.0
2010-10-18,164.0
2010-10-19,167.0
2010-10-20,174.0
2010-10-21,177.0
2010-10-22,230.0
2010-10-23,245.0
2010-10-24,302.0
2010-10-25,355.0
2010-10-26,415.0
2010-10-27,273.0
2010-10-28,244.0
2010-10-29,232.0
2010-10-30,230.0
2010-10-31,222.0
2010-11-01,220.0
2010-11-02,212.0
2010-11-03,207.0
2010-11-04,206.0
2010-11-05,207.0
2010-11-06,206.0
2010-11-07,210.0
2010-11-08,208.0
2010-11-09,246.0
2010-11-10,246.0
2010-11-11,236.0
2010-11-12,229.0
2010-11-13,215.0
2010-11-14,222.0
2010-11-15,229.0
2010-11-16,196.0
2010-11-17,191.0
2010-11-18,176.0
2010-11-19,175.0
2010-11-20,186.0
2010-11-21,183.0
2010-11-22,182.0
2010-11-23,168.0
2010-11-24,171.0
2010-11-25,147.0
2010-11-26,140.0
2010-11-27,158.0
2010-11-28,171.0
2010-11-29,184.0
2010-11-30,159.0
2010-12-01,148.0
2010-12-02,153.0
2010-12-03,161.0
2010-12-04,165.0
2010-12-05,166.0
2010-12-06,154.0
2010-12-07,163.0
2010-12-08,144.0
2010-12-09,156.0
2010-12-10,160.0
2010-12-11,155.0
2010-12-12,148.0
2010-12-13,144.0
2010-12-14,152.0
2010-12-15,150.0
2010-12-16,144.0
2010-12-17,136.0
2010-12-18,153.0
2010-12-19,172.0
2010-12-20,196.0
2010-12-21,294.0
2010-12-22,271.0
2010-12-23,249.0
2010-12-24,247.0
2010-12-25,205.0
2010-12-26,186.0
2010-12-27,215.0
2010-12-28,205.0
2010-12-29,187.0
2010-12-30,200.0
2010-12-31,186.0
2011-01-01,180.0
2011-01-02,169.0
2011-01-03,182.0
2011-01-04,194.0
2011-01-05,199.0
2011-01-06,194.0
2011-01-07,191.0
2011-01-08,192.0
2011-01-09,197.0
2011-01-10,190.0
2011-01-11,185.0
2011-01-12,191.0
2011-01-13,194.0
2011-01-14,186.0
2011-01-15,187.0
2011-01-16,185.0
2011-01-17,179.0
2011-01-18,177.0
2011-01-19,161.0
2011-01-20,150.0
2011-01-21,144.0
2011-01-22,148.0
2011-01-23,148.0
2011-01-24,146.0
2011-01-25,140.0
2011-01-26,143.0
2011-01-27,144.0
2011-01-28,145.0
2011-01-29,142.0
2011-01-30,142.0
2011-01-31,150.0
2011-02-01,138.0
2011-02-02,120.0
2011-02-03,120.0
2011-02-04,125.0
2011-02-05,137.0
2011-02-06,137.0
2011-02-07,129.0
2011-02-08,132.0
2011-02-09,133.0
2011-02-10,132.0
2011-02-11,135.0
2011-02-12,137.0
2011-02-13,138.0
2011-02-14,140.0
2011-02-15,143.0
2011-02-16,154.0
2011-02-17,157.0
2011-02-18,157.0
2011-02-19,151.0
2011-02-20,179.0
2011-02-21,157.0
2011-02-22,146.0
2011-02-23,145.0
2011-02-24,155.0
2011-02-25,151.0
2011-02-26,148.0
2011-02-27,142.0
2011-02-28,144.0
2011-03-01,141.0
2011-03-02,156.0
2011-03-03,170.0
2011-03-04,184.0
2011-03-05,159.0
2011-03-06,163.0
2011-03-07,168.0
2011-03-08,183.0
2011-03-09,177.0
2011-03-10,166.0
2011-03-11,172.0
2011-03-12,193.0
2011-03-13,222.0
2011-03-14,237.0
2011-03-15,250.0
2011-03-16,279.0
2011-03-17,358.0
2011-03-18,444.0
2011-03-19,456.0
2011-03-20,393.0
2011-03-21,356.0
2011-03-22,366.0
2011-03-23,336.0
2011-03-24,342.0
2011-03-25,330.0
2011-03-26,209.0
2011-03-27,313.0
2011-03-28,430.0
2011-03-29,692.0
2011-03-30,224.0
2011-03-31,234.0
2011-04-01,372.0
2011-04-02,640.0
2011-04-03,1160.0
2011-04-04,1000.0
2011-04-05,765.0
2011-04-06,895.0
2011-04-07,862.0
2011-04-08,869.0
2011-04-09,893.0
2011-04-10,850.0
2011-04-11,760.0
2011-04-12,746.0
2011-04-13,783.0
2011-04-14,1040.0
2011-04-15,901.0
2011-04-16,952.0
2011-04-17,1230.0
2011-04-18,1590.0
2011-04-19,2490.0
2011-04-20,2180.0
2011-04-21,2160.0
2011-04-22,2240.0
2011-04-23,1790.0
2011-04-24,1640.0
2011-04-25,1650.0
2011-04-26,1500.0
2011-04-27,1190.0
2011-04-28,962.0
2011-04-29,996.0
2011-04-30,973.0
2011-05-01,878.0
2011-05-02,779.0
2011-05-03,671.0
2011-05-04,798.0
2011-05-05,1250.0
2011-05-06,1800.0
2011-05-07,2630.0
2011-05-08,3580.0
2011-05-09,3950.0
2011-05-10,2980.0
2011-05-11,2630.0
2011-05-12,2170.0
2011-05-13,1750.0
2011-05-14,2300.0
2011-05-15,2720.0
2011-05-16,3630.0
2011-05-17,3520.0
2011-05-18,2890.0
2011-05-19,2340.0
2011-05-20,1970.0
2011-05-21,1770.0
2011-05-22,1690.0
2011-05-23,1960.0
2011-05-24,2220.0
2011-05-25,2180.0
2011-05-26,2520.0
2011-05-27,3270.0
2011-05-28,4010.0
2011-05-29,4680.0
2011-05-30,5040.0
2011-05-31,3780.0
2011-06-01,3760.0
2011-06-02,3990.0
2011-06-03,4570.0
2011-06-04,4230.0
2011-06-05,4420.0
2011-06-06,4850.0
2011-06-07,5210.0
2011-06-08,4690.0
2011-06-09,4360.0
2011-06-10,4030.0
2011-06-11,3760.0
2011-06-12,3680.0
2011-06-13,3540.0
2011-06-14,3220.0
2011-06-15,3050.0
2011-06-16,3150.0
2011-06-17,3310.0
2011-06-18,2850.0
2011-06-19,2580.0
2011-06-20,2350.0
2011-06-21,2050.0
2011-06-22,1970.0
2011-06-23,2210.0
2011-06-24,2460.0
2011-06-25,2580.0
2011-06-26,2700.0
2011-06-27,2430.0
2011-06-28,2000.0
2011-06-29,2150.0
2011-06-30,2420.0
2011-07-01,2350.0
2011-07-02,1950.0
2011-07-03,1900.0
2011-07-04,1790.0
2011-07-05,1720.0
2011-07-06,1870.0
2011-07-07,1800.0
2011-07-08,1600.0
2011-07-09,1780.0
2011-07-10,1720.0
2011-07-11,1400.0
2011-07-12,1560.0
2011-07-13,1700.0
2011-07-14,1350.0
2011-07-15,1120.0
2011-07-16,861.0
2011-07-17,761.0
2011-07-18,771.0
2011-07-19,709.0
2011-07-20,654.0
2011-07-21,547.0
2011-07-22,483.0
2011-07-23,410.0
2011-07-24,362.0
2011-07-25,321.0
2011-07-26,309.0
2011-07-27,338.0
2011-07-28,308.0
2011-07-29,259.0
2011-07-30,235.0
2011-07-31,231.0
2011-08-01,222.0
2011-08-02,210.0
2011-08-03,196.0
2011-08-04,212.0
2011-08-05,203.0
2011-08-06,167.0
2011-08-07,147.0
2011-08-08,140.0
2011-08-09,154.0
2011-08-10,153.0
2011-08-11,148.0
2011-08-12,142.0
2011-08-13,130.0
2011-08-14,139.0
2011-08-15,197.0
2011-08-16,184.0
2011-08-17,185.0
2011-08-18,163.0
2011-08-19,151.0
2011-08-20,149.0
2011-08-21,142.0
2011-08-22,138.0
2011-08-23,140.0
2011-08-24,129.0
2011-08-25,125.0
2011-08-26,133.0
2011-08-27,137.0
2011-08-28,151.0
2011-08-29,179.0
2011-08-30,182.0
2011-08-31,158.0
2011-09-01,152.0
2011-09-02,148.0
2011-09-03,147.0
2011-09-04,141.0
2011-09-05,140.0
2011-09-06,161.0
2011-09-07,205.0
2011-09-08,196.0
2011-09-09,183.0
2011-09-10,202.0
2011-09-11,190.0
2011-09-12,194.0
2011-09-13,185.0
2011-09-14,183.0
2011-09-15,211.0
2011-09-16,219.0
2011-09-17,244.0
2011-09-18,280.0
2011-09-19,252.0
2011-09-20,235.0
2011-09-21,224.0
2011-09-22,207.0
2011-09-23,198.0
2011-09-24,192.0
2011-09-25,187.0
2011-09-26,177.0
2011-09-27,170.0
2011-09-28,168.0
2011-09-29,163.0
2011-09-30,159.0
2011-10-01,158.0
2011-10-02,165.0
2011-10-03,169.0
2011-10-04,200.0
2011-10-05,230.0
2011-10-06,308.0
2011-10-07,317.0
2011-10-08,276.0
2011-10-09,294.0
2011-10-10,278.0
2011-10-11,258.0
2011-10-12,250.0
2011-10-13,247.0
2011-10-14,245.0
2011-10-15,235.0
2011-10-16,234.0
2011-10-17,239.0
2011-10-18,269.0
2011-10-19,258.0
2011-10-20,250.0
2011-10-21,238.0
2011-10-22,225.0
2011-10-23,221.0
2011-10-24,220.0
2011-10-25,232.0
2011-10-26,357.0
2011-10-27,294.0
2011-10-28,255.0
2011-10-29,245.0
2011-10-30,246.0
2011-10-31,255.0
2011-11-01,245.0
2011-11-02,262.0
2011-11-03,252.0
2011-11-04,239.0
2011-11-05,258.0
2011-11-06,275.0
2011-11-07,258.0
2011-11-08,238.0
2011-11-09,229.0
2011-11-10,214.0
2011-11-11,206.0
2011-11-12,199.0
2011-11-13,203.0
2011-11-14,245.0
2011-11-15,232.0
2011-11-16,225.0
2011-11-17,212.0
2011-11-18,210.0
2011-11-19,229.0
2011-11-20,221.0
2011-11-21,218.0
2011-11-22,219.0
2011-11-23,202.0
2011-11-24,214.0
2011-11-25,222.0
2011-11-26,218.0
2011-11-27,191.0
2011-11-28,195.0
2011-11-29,234.0
2011-11-30,218.0
2011-12-01,224.0
2011-12-02,212.0
2011-12-03,229.0
2011-12-04,220.0
2011-12-05,201.0
2011-12-06,180.0
2011-12-07,152.0
2011-12-08,137.0
2011-12-09,154.0
2011-12-10,189.0
2011-12-11,199.0
2011-12-12,184.0
2011-12-13,172.0
2011-12-14,189.0
2011-12-15,192.0
2011-12-16,172.0
2011-12-17,176.0
2011-12-18,184.0
2011-12-19,189.0
2011-12-20,188.0
2011-12-21,189.0
2011-12-22,182.0
2011-12-23,153.0
2011-12-24,169.0
2011-12-25,189.0
2011-12-26,197.0
2011-12-27,199.0
2011-12-28,190.0
2011-12-29,177.0
2011-12-30,182.0
2011-12-31,156.0
2012-01-01,145.0
2012-01-02,147.0
2012-01-03,149.0
2012-01-04,153.0
2012-01-05,166.0
2012-01-06,173.0
2012-01-07,174.0
2012-01-08,166.0
2012-01-09,146.0
2012-01-10,135.0
2012-01-11,121.0
2012-01-12,121.0
2012-01-13,120.0
2012-01-14,127.0
2012-01-15,154.0
2012-01-16,164.0
2012-01-17,155.0
2012-01-18,159.0
2012-01-19,172.0
2012-01-20,164.0
2012-01-21,167.0
2012-01-22,181.0
2012-01-23,152.0
2012-01-24,153.0
2012-01-25,138.0
2012-01-26,141.0
2012-01-27,169.0
2012-01-28,160.0
2012-01-29,155.0
2012-01-30,151.0
2012-01-31,149.0
2012-02-01,150.0
2012-02-02,156.0
2012-02-03,158.0
2012-02-04,148.0
2012-02-05,142.0
2012-02-06,130.0
2012-02-07,119.0
2012-02-08,114.0
2012-02-09,123.0
2012-02-10,119.0
2012-02-11,142.0
2012-02-12,167.0
2012-02-13,174.0
2012-02-14,176.0
2012-02-15,169.0
2012-02-16,163.0
2012-02-17,151.0
2012-02-18,131.0
2012-02-19,122.0
2012-02-20,121.0
2012-02-21,122.0
2012-02-22,122.0
2012-02-23,141.0
2012-02-24,128.0
2012-02-25,134.0
2012-02-26,149.0
2012-02-27,142.0
2012-02-28,196.0
2012-02-29,167.0
2012-03-01,161.0
2012-03-02,147.0
2012-03-03,121.0
2012-03-04,117.0
2012-03-05,119.0
2012-03-06,129.0
2012-03-07,132.0
2012-03-08,119.0
2012-03-09,116.0
2012-03-10,144.0
2012-03-11,174.0
2012-03-12,208.0
2012-03-13,246.0
2012-03-14,304.0
2012-03-15,346.0
2012-03-16,390.0
2012-03-17,451.0
2012-03-18,478.0
2012-03-19,431.0
2012-03-20,359.0
2012-03-21,243.0
2012-03-22,231.0
2012-03-23,335.0
2012-03-24,472.0
2012-03-25,586.0
2012-03-26,636.0
2012-03-27,638.0
2012-03-28,696.0
2012-03-29,763.0
2012-03-30,724.0
2012-03-31,785.0
2012-04-01,840.0
2012-04-02,857.0
2012-04-03,617.0
2012-04-04,452.0
2012-04-05,575.0
2012-04-06,497.0
2012-04-07,394.0
2012-04-08,347.0
2012-04-09,381.0
2012-04-10,446.0
2012-04-11,486.0
2012-04-12,543.0
2012-04-13,378.0
2012-04-14,360.0
2012-04-15,265.0
2012-04-16,191.0
2012-04-17,132.0
2012-04-18,105.0
2012-04-19,120.0
2012-04-20,164.0
2012-04-21,155.0
2012-04-22,230.0
2012-04-23,287.0
2012-04-24,360.0
2012-04-25,466.0
2012-04-26,482.0
2012-04-27,654.0
2012-04-28,571.0
2012-04-29,382.0
2012-04-30,298.0
2012-05-01,272.0
2012-05-02,241.0
2012-05-03,213.0
2012-05-04,246.0
2012-05-05,332.0
2012-05-06,394.0
2012-05-07,379.0
2012-05-08,309.0
2012-05-09,243.0
2012-05-10,255.0
2012-05-11,297.0
2012-05-12,368.0
2012-05-13,425.0
2012-05-14,406.0
2012-05-15,418.0
2012-05-16,420.0
2012-05-17,401.0
2012-05-18,410.0
2012-05-19,390.0
2012-05-20,337.0
2012-05-21,322.0
2012-05-22,364.0
2012-05-23,406.0
2012-05-24,360.0
2012-05-25,281.0
2012-05-26,258.0
2012-05-27,281.0
2012-05-28,235.0
2012-05-29,182.0
2012-05-30,160.0
2012-05-31,197.0
2012-06-01,218.0
2012-06-02,261.0
2012-06-03,246.0
2012-06-04,225.0
2012-06-05,222.0
2012-06-06,224.0
2012-06-07,183.0
2012-06-08,146.0
2012-06-09,124.0
2012-06-10,103.0
2012-06-11,94.3
2012-06-12,78.6
2012-06-13,70.4
2012-06-14,69.9
2012-06-15,67.4
2012-06-16,69.4
2012-06-17,65.1
2012-06-18,63.6
2012-06-19,62.0
2012-06-20,64.9
2012-06-21,61.5
2012-06-22,61.1
2012-06-23,58.5
2012-06-24,58.2
2012-06-25,58.7
2012-06-26,56.2
2012-06-27,54.9
2012-06-28,52.8
2012-06-29,52.3
2012-06-30,53.2
2012-07-01,54.3
2012-07-02,56.5
2012-07-03,57.0
2012-07-04,58.8
2012-07-05,65.6
2012-07-06,83.7
2012-07-07,80.0
2012-07-08,122.0
2012-07-09,121.0
2012-07-10,100.0
2012-07-11,87.5
2012-07-12,83.2
2012-07-13,80.9
2012-07-14,93.6
2012-07-15,135.0
2012-07-16,162.0
2012-07-17,158.0
2012-07-18,138.0
2012-07-19,114.0
2012-07-20,102.0
2012-07-21,92.3
2012-07-22,82.7
2012-07-23,82.5
2012-07-24,87.1
2012-07-25,111.0
2012-07-26,88.9
2012-07-27,87.0
2012-07-28,112.0
2012-07-29,114.0
2012-07-30,109.0
2012-07-31,97.3
2012-08-01,92.8
2012-08-02,92.5
2012-08-03,99.9
2012-08-04,95.2
2012-08-05,87.0
2012-08-06,79.9
2012-08-07,82.2
2012-08-08,82.8
2012-08-09,78.5
2012-08-10,80.3
2012-08-11,79.0
2012-08-12,71.4
2012-08-13,70.0
2012-08-14,76.3
2012-08-15,76.1
2012-08-16,80.3
2012-08-17,74.9
2012-08-18,73.7
2012-08-19,73.5
2012-08-20,74.0
2012-08-21,72.4
2012-08-22,70.5
2012-08-23,80.8
2012-08-24,148.0
2012-08-25,135.0
2012-08-26,103.0
2012-08-27,90.2
2012-08-28,92.8
2012-08-29,81.7
2012-08-30,78.4
2012-08-31,84.0
2012-09-01,84.5
2012-09-02,85.8
2012-09-03,82.1
2012-09-04,75.5
2012-09-05,70.5
2012-09-06,67.0
2012-09-07,64.9
2012-09-08,64.7
2012-09-09,64.7
2012-09-10,61.9
2012-09-11,66.4
2012-09-12,108.0
2012-09-13,97.4
2012-09-14,86.6
2012-09-15,83.6
2012-09-16,85.7
2012-09-17,82.7
2012-09-18,79.4
2012-09-19,77.5
2012-09-20,76.3
2012-09-21,77.1
2012-09-22,79.1
2012-09-23,75.3
2012-09-24,81.6
2012-09-25,85.5
2012-09-26,94.8
2012-09-27,110.0
2012-09-28,110.0
2012-09-29,101.0
2012-09-30,87.0
2012-10-01,82.9
2012-10-02,79.2
2012-10-03,77.6
2012-10-04,77.8
2012-10-05,76.9
2012-10-06,76.8
2012-10-07,76.5
2012-10-08,79.0
2012-10-09,78.9
2012-10-10,81.0
2012-10-11,82.3
2012-10-12,97.7
2012-10-13,118.0
2012-10-14,127.0
2012-10-15,125.0
2012-10-16,126.0
2012-10-17,127.0
2012-10-18,148.0
2012-10-19,151.0
2012-10-20,175.0
2012-10-21,190.0
2012-10-22,169.0
2012-10-23,154.0
2012-10-24,154.0
2012-10-25,142.0
2012-10-26,145.0
2012-10-27,138.0
2012-10-28,142.0
2012-10-29,146.0
2012-10-30,149.0
2012-10-31,120.0
2012-11-01,111.0
2012-11-02,105.0
2012-11-03,104.0
2012-11-04,102.0
2012-11-05,102.0
2012-11-06,105.0
2012-11-07,104.0
2012-11-08,104.0
2012-11-09,106.0
2012-11-10,125.0
2012-11-11,126.0
2012-11-12,99.5
2012-11-13,97.0
2012-11-14,118.0
2012-11-15,119.0
2012-11-16,111.0
2012-11-17,114.0
2012-11-18,109.0
2012-11-19,109.0
2012-11-20,107.0
2012-11-21,101.0
2012-11-22,97.4
2012-11-23,94.6
2012-11-24,93.7
2012-11-25,91.9
2012-11-26,94.2
2012-11-27,98.6
2012-11-28,97.6
2012-11-29,115.0
2012-11-30,127.0
2012-12-01,130.0
2012-12-02,121.0
2012-12-03,120.0
2012-12-04,113.0
2012-12-05,99.5
2012-12-06,107.0
2012-12-07,106.0
2012-12-08,102.0
2012-12-09,98.4
2012-12-10,84.1
2012-12-11,86.1
2012-12-12,90.8
2012-12-13,105.0
2012-12-14,120.0
2012-12-15,125.0
2012-12-16,124.0
2012-12-17,122.0
2012-12-18,135.0
2012-12-19,130.0
2012-12-20,102.0
2012-12-21,114.0
2012-12-22,136.0
2012-12-23,136.0
2012-12-24,134.0
2012-12-25,132.0
2012-12-26,135.0
2012-12-27,128.0
2012-12-28,116.0
2012-12-29,103.0
2012-12-30,126.0
2012-12-31,105.0
2013-01-01,115.0
2013-01-02,150.0
2013-01-03,160.0
2013-01-04,167.0
2013-01-05,167.0
2013-01-06,167.0
2013-01-07,167.0
2013-01-08,167.0
2013-01-09,168.0
2013-01-10,162.0
2013-01-11,150.0
2013-01-12,124.0
2013-01-13,124.0
2013-01-14,124.0
2013-01-15,124.0
2013-01-16,140.0
2013-01-17,166.0
2013-01-18,176.0
2013-01-19,176.0
2013-01-20,176.0
2013-01-21,176.0
2013-01-22,176.0
2013-01-23,175.0
2013-01-24,157.0
2013-01-25,123.0
2013-01-26,132.0
2013-01-27,261.0
2013-01-28,185.0
2013-01-29,123.0
2013-01-30,112.0
2013-01-31,86.2
2013-02-01,82.4
2013-02-02,81.2
2013-02-03,80.1
2013-02-04,81.8
2013-02-05,78.9
2013-02-06,78.1
2013-02-07,96.9
2013-02-08,99.3
2013-02-09,113.0
2013-02-10,107.0
2013-02-11,106.0
2013-02-12,92.8
2013-02-13,94.2
2013-02-14,104.0
2013-02-15,101.0
2013-02-16,95.2
2013-02-17,104.0
2013-02-18,103.0
2013-02-19,88.4
2013-02-20,105.0